Terug naar catalogus

STARLINK-31589

ActiefCommunicatieVLEO
NORAD 59654·PAYLOAD·🇺🇸 United States

Gelanceerd May 6, 2024 vanaf Cape Canaveral Space Force Station

Loading…

Volgende Passages (komende 24 uur)

TLE

VersSource: CelesTrak SupGP

Epoch: Sep 15, 2026, 03:12 UTC

1 59654C 24084A   26258.13381944 -.00025362  00000+0 -91835-3 0  2589
2 59654  43.0026  51.7495 0001699 269.0190 252.0816 15.27600601    12

Volg STARLINK-31589 in realtime met AllMySat

Download on the App Store